Precipitable_Water
1.21 1.16 1.12 1.10 1.10 1.06 1.02 0.99 0.99 0.96 0.90 0.88 0.87 0.90 0.93 0.95 0.97 0.95 0.95 0.90 0.87 0.85 0.82 0.84 0.92 0.96 0.97 0.98 0.93 0.95 0.93 0.97
1.29 1.22 1.15 1.16 1.15 1.13 1.11 1.07 1.03 1.01 0.97 0.93 0.89 0.87 0.89 0.90 0.89 0.92 0.91 0.89 0.86 0.85 0.82 0.79 0.82 0.89 0.92 0.92 0.93 0.96 0.96 0.97
1.29 1.30 1.24 1.19 1.19 1.17 1.17 1.14 1.12 1.09 1.03 0.99 0.96 0.92 0.90 0.92 0.89 0.86 0.86 0.86 0.85 0.84 0.82 0.79 0.74 0.81 0.85 0.87 0.92 0.97 0.98 0.99
1.59 1.51 1.25 1.22 1.20 1.19 1.19 1.16 1.15 1.13 1.08 1.03 0.99 0.97 0.95 0.94 0.92 0.87 0.83 0.82 0.83 0.83 0.80 0.73 0.67 0.67 0.79 0.87 0.92 1.00 0.99 1.00
1.54 1.64 1.66 1.38 1.14 1.16 1.19 1.18 1.16 1.15 1.11 1.06 1.02 0.99 0.97 0.95 0.94 0.90 0.83 0.83 0.78 0.80 0.79 0.72 0.63 0.60 0.69 0.84 0.93 0.99 1.00 1.00
1.40 1.53 1.63 1.67 1.61 1.16 1.14 1.15 1.14 1.12 1.11 1.09 1.02 0.97 0.93 0.89 0.87 0.87 0.83 0.81 0.75 0.75 0.74 0.72 0.65 0.59 0.61 0.75 0.92 1.01 1.05 1.08
1.08 1.39 1.48 1.59 1.61 1.60 1.23 1.11 1.12 1.09 1.09 1.10 1.06 0.96 0.92 0.89 0.86 0.85 0.79 0.78 0.77 0.73 0.73 0.71 0.67 0.61 0.62 0.71 0.85 0.95 1.05 1.06
0.85 1.14 1.46 1.55 1.60 1.60 1.56 1.21 1.12 1.13 1.09 1.06 1.05 1.00 0.94 0.92 0.86 0.83 0.80 0.79 0.75 0.74 0.73 0.73 0.70 0.69 0.62 0.68 0.81 0.93 1.00 1.04
0.80 0.96 1.23 1.28 1.50 1.63 1.63 1.54 1.20 1.10 1.08 1.07 1.05 1.02 0.95 0.92 0.88 0.83 0.82 0.84 0.80 0.76 0.73 0.77 0.75 0.75 0.69 0.67 0.73 0.82 0.95 1.03
0.70 0.84 1.01 1.22 1.28 1.48 1.64 1.64 1.53 1.25 1.10 1.08 1.05 1.03 1.01 0.94 0.89 0.85 0.89 0.89 0.88 0.85 0.77 0.68 0.70 0.71 0.69 0.69 0.71 0.75 0.81 0.94
0.67 0.72 0.82 0.96 1.14 1.29 1.45 1.64 1.62 1.52 1.33 1.11 1.08 1.04 1.02 0.98 0.92 0.90 0.93 0.95 0.94 0.90 0.87 0.78 0.66 0.66 0.68 0.70 0.71 0.74 0.76 0.82
0.69 0.73 0.78 0.88 1.03 1.16 1.31 1.41 1.59 1.66 1.58 1.45 1.17 1.08 1.05 1.02 0.99 0.93 0.94 0.96 0.99 0.99 0.92 0.92 0.77 0.72 0.76 0.72 0.80 0.77 0.80 0.82
0.60 0.69 0.75 0.81 0.88 1.03 1.18 1.22 1.36 1.48 1.61 1.62 1.49 1.36 1.14 1.06 1.03 0.99 0.96 0.94 0.98 1.04 1.00 0.94 0.88 0.90 0.85 0.82 0.81 0.87 0.85 0.82
0.53 0.61 0.71 0.80 0.88 0.98 1.10 1.26 1.39 1.43 1.52 1.67 1.70 1.60 1.52 1.30 1.14 1.08 1.01 0.96 0.99 1.04 1.06 0.98 0.96 0.98 0.85 0.85 0.67 0.69 0.77 0.79
0.49 0.54 0.61 0.74 0.85 0.93 1.02 1.18 1.30 1.45 1.46 1.51 1.69 1.70 1.67 1.62 1.44 1.25 1.18 1.16 1.07 1.07 1.09 1.04 0.95 1.00 1.02 0.93 0.75 0.62 0.66 0.70
0.50 0.51 0.56 0.64 0.76 0.84 0.87 0.92 1.00 1.14 1.32 1.45 1.63 1.69 1.71 1.77 1.66 1.54 1.41 1.27 1.24 1.22 1.25 1.18 1.13 0.94 1.03 1.06 1.05 0.94 0.73 0.61
0.51 0.51 0.52 0.57 0.64 0.72 0.79 0.86 0.98 1.15 1.27 1.39 1.43 1.52 1.56 1.62 1.72 1.62 1.53 1.49 1.43 1.36 1.29 1.23 1.23 1.16 1.10 1.04 1.02 1.03 1.03 0.91
0.56 0.52 0.51 0.53 0.58 0.61 0.66 0.73 0.84 0.93 1.07 1.25 1.33 1.45 1.43 1.54 1.63 1.68 1.68 1.52 1.47 1.48 1.49 1.44 1.42 1.33 1.28 1.27 1.16 1.03 0.97 0.95
0.53 0.55 0.53 0.54 0.54 0.57 0.61 0.65 0.75 0.82 0.91 0.99 1.19 1.28 1.34 1.42 1.50 1.55 1.60 1.69 1.58 1.49 1.47 1.57 1.45 1.47 1.45 1.37 1.40 1.32 1.28 1.21
0.51 0.52 0.52 0.56 0.58 0.57 0.59 0.61 0.66 0.74 0.77 0.85 0.93 1.11 1.21 1.34 1.34 1.41 1.50 1.51 1.49 1.59 1.52 1.36 1.52 1.52 1.45 1.38 1.42 1.40 1.45 1.35
Wind_Speed
10 10 10 9 9 9 10 10 10 10 10 11 11 10 10 10 10 11 11 12 13 13 13 12 12 11 10 9 8 6 5 4
11 12 12 11 11 11 10 10 10 11 11 11 11 11 11 11 11 11 12 13 13 14 14 13 13 12 11 9 8 7 6 5
13 14 14 14 14 13 12 12 12 12 12 12 12 12 12 12 12 12 13 14 14 15 15 15 14 14 13 11 10 9 8 7
13 15 16 17 17 16 16 15 14 14 14 14 14 13 13 13 13 14 14 15 15 16 16 16 16 16 15 14 12 11 10 10
16 16 17 19 19 20 19 18 17 17 16 16 15 15 15 15 15 15 15 16 16 17 17 17 17 17 17 16 15 14 13 12
20 21 20 19 21 23 23 21 21 20 20 19 18 17 17 17 16 16 17 17 17 18 18 19 19 19 19 19 18 16 15 14
17 22 24 23 22 23 25 25 24 23 23 22 21 20 19 18 18 18 18 19 19 19 19 20 20 20 20 20 20 19 18 18
17 19 23 27 27 25 26 28 27 26 25 25 24 23 22 21 21 20 20 20 21 21 21 21 21 22 22 22 22 22 21 21
20 20 24 26 29 29 28 29 30 30 29 28 27 26 25 24 23 23 22 22 22 22 23 23 23 24 24 24 25 25 24 23
23 23 23 27 29 31 32 32 31 31 32 31 31 30 29 27 26 26 25 25 24 24 24 25 25 25 26 26 26 26 26 26
26 26 26 27 30 32 34 34 34 34 33 34 34 33 32 31 30 29 28 27 27 26 26 26 26 27 27 27 27 27 27 27
29 29 28 28 30 32 34 35 36 36 35 35 36 36 35 35 33 32 32 31 30 29 29 28 28 28 28 29 29 29 29 29
32 32 31 31 30 32 35 36 37 38 38 38 37 37 38 38 37 36 35 34 33 32 32 31 30 30 30 30 31 32 31 31
32 33 33 32 31 32 35 38 37 39 40 41 40 40 40 40 40 39 39 38 37 36 35 34 34 33 32 31 31 31 32 34
32 33 33 33 33 32 33 36 38 36 36 39 42 43 43 43 43 43 42 41 41 40 40 39 38 37 37 35 30 30 30 31
29 31 33 33 33 32 31 32 35 39 39 38 38 40 43 44 46 46 46 45 44 43 43 43 42 41 39 41 41 37 34 33
26 28 30 31 33 32 32 31 32 35 38 38 37 38 40 42 43 44 46 48 48 48 47 46 45 45 44 43 43 44 42 40
23 24 26 28 30 31 33 32 31 32 34 36 38 40 37 39 42 40 42 44 47 47 48 49 49 49 48 48 47 45 45 44
20 21 23 25 27 29 30 31 32 31 32 33 35 39 37 27 31 40 39 36 42 45 45 46 48 48 49 50 51 51 51 51
18 19 20 23 25 27 28 30 31 31 31 33 32 32 36 35 33 34 38 42 44 39 44 48 45 42 43 47 46 46 49 52
Wind_Direction
200 197 195 194 191 190 189 189 188 187 188 190 191 191 191 190 190 189 188 186 185 185 184 184 183 181 180 180 182 180 180 182
215 213 211 209 207 206 203 202 200 199 199 200 200 201 202 203 202 202 201 200 199 198 198 199 199 199 199 199 200 203 213 215
224 223 222 221 219 218 216 215 214 212 211 210 209 209 210 212 212 213 212 212 211 210 210 211 211 212 213 216 217 223 227 232
232 232 229 228 227 226 224 224 223 222 221 219 218 218 218 219 220 220 221 220 220 219 219 220 221 221 222 224 227 231 237 243
244 239 236 233 233 231 231 230 229 229 228 227 226 225 225 225 226 226 226 226 226 226 227 227 228 228 228 230 231 237 242 248
253 245 242 239 238 236 234 235 234 234 232 232 231 231 231 231 232 232 232 231 231 231 231 232 233 233 233 234 236 239 245 251
265 249 245 245 243 241 237 237 237 237 236 235 236 236 236 236 236 236 236 235 235 235 235 236 237 237 237 238 240 243 247 254
274 258 250 247 246 245 242 239 239 239 239 239 238 239 239 239 239 240 240 239 238 238 239 240 241 241 241 242 244 247 250 254
272 268 257 253 248 248 246 244 241 241 241 240 241 241 241 242 242 242 242 242 242 242 242 243 244 244 245 246 248 250 253 255
271 268 266 257 252 249 247 245 244 243 242 243 242 242 242 243 244 244 244 244 244 245 245 245 246 247 248 249 251 252 255 257
272 270 267 264 256 251 247 246 245 245 245 244 244 243 244 244 245 245 245 246 247 247 248 247 248 249 250 252 253 255 256 258
271 270 269 266 260 254 249 247 246 246 246 247 246 245 245 245 246 247 246 247 248 248 249 250 250 251 253 254 255 256 257 258
273 271 270 266 263 256 251 250 248 247 246 248 248 247 246 246 246 247 247 247 248 249 250 250 252 253 255 257 258 258 259 259
274 272 270 267 262 259 254 251 250 249 249 249 249 249 248 247 247 247 247 248 249 249 250 252 253 253 255 258 261 262 260 260
274 271 269 268 265 259 257 252 249 251 250 250 248 249 248 248 248 247 248 248 249 249 250 251 253 254 253 255 260 260 264 262
277 272 269 266 265 262 258 255 250 250 251 252 252 250 248 249 249 248 248 248 249 249 251 252 253 255 256 255 256 260 262 266
280 274 271 266 263 261 259 256 254 252 252 251 252 253 251 250 249 249 249 249 251 251 251 252 253 255 255 257 257 258 260 262
287 280 275 271 266 263 259 257 255 253 254 252 253 251 254 249 248 249 250 251 250 253 254 254 255 256 256 256 257 258 260 260
306 290 283 276 269 264 261 258 255 254 254 255 256 261 260 249 252 248 250 255 255 253 254 256 256 257 258 258 258 259 259 260
322 312 302 285 275 268 263 259 255 254 254 253 258 259 259 265 266 258 256 256 259 263 254 255 256 257 259 258 259 262 261 261